Regional Weather Roundup
Issued by NWS

Home | Current Version | Previous Version | Graphics & Text | Print | Product List | Glossary On
Versions: 1 2 3 4 5 6 7 8 9 10 11 12 13 14 15 16 17 18 19 20 21 22 23 24 25 26 27 28
000
ASUS45 KTFX 230610
RWRMT
MONTANA REGIONAL WEATHER ROUNDUP
NATIONAL WEATHER SERVICE GREAT FALLS MT
1100 PM MST THU FEB 22 2018

NOTE: "FAIR" INDICATES FEW OR NO CLOUDS BELOW 12000 FEET WITH NO
SIGNIFICANT WEATHER AND/OR OBSTRUCTIONS TO VISIBILITY.

MTZ001>007-043-230700-
WEST OF THE DIVIDE

CITY           SKY/WX    TMP DP  RH WIND       PRES   REMARKS
KALISPELL      FAIR       8   1  73 CALM      30.16R
MISSOULA       FAIR      15   5  64 NW3       30.14R
BUTTE          LGT SNOW  10   5  80 CALM      29.95S
MULLAN PASS    CLOUDY     7   3  84 N3        29.96R
ANACONDA         N/A      9   1  72 CALM      30.02R
DEER LODGE       N/A      7  -2  66 W8        30.04S WCI  -6
HAMILTON         N/A     18  10  73 MISG      30.09R
RONAN            N/A     -4  -8  84 CALM      30.18S
$$

MTZ008-052>055-230700-
SOUTHWEST MONTANA

CITY           SKY/WX    TMP DP  RH WIND       PRES   REMARKS
BOZEMAN        FAIR       7   0  73 N6        30.06S WCI  -3
DILLON         CLOUDY     5   5 100 NE10      29.95S WCI -10
ENNIS          FLURRIES   9   5  85 S6        30.01S WCI  -1
W YELLOWSTONE  LGT SNOW   1  -2  85 CALM      29.89S
THREE FORKS      N/A      7   0  73 NW5       30.05R
TWIN BRIDGES     N/A     13   3  64 N13       29.97S WCI  -1
$$

MTZ009-010-012-014-046-048-049-054-230700-
EAST SLOPES AND CENTRAL MONTANA

CITY           SKY/WX    TMP DP  RH WIND       PRES   REMARKS
CUT BANK       FAIR      -4  -6  91 S3        30.12F
GREAT FALLS    FAIR      -5 -10  79 SW7       30.15F WCI -19
MALMSTROM AFB  CLEAR      0  -5  82 SW5       30.18F
HELENA         FAIR       6  -3  66 SW8       30.12S WCI  -7
AUGUSTA        FAIR     -11 -14  83 NW5       30.08F
CHOTEAU          N/A     -2  -6  84 W5        30.14F
RAYNESFORD     FAIR      -3  -7  80 SE3       30.13F
WHITE SULPHUR    N/A     -6  -9  84 SE5       30.03F
$$

MTZ011-013-016-021-045-047-050-051-230700-
NORTH CENTRAL MONTANA

CITY           SKY/WX    TMP DP  RH WIND       PRES   REMARKS
HAVRE          FAIR      -4  -8  83 W7        30.24F WCI -18
LEWISTOWN      FAIR      -6 -10  83 SE6       30.12F WCI -19
N BAR RANCH    FAIR       1  -9  60 W6        30.13S WCI -10
CHINOOK          N/A     -9 -15  77 CALM      30.27S
GEYSER         CLOUDY    -1  -7  75 SW8       30.12F WCI -15
STANFORD       FAIR      -1  -9  67 W3        30.09F
$$

MTZ017>020-022>027-061-062-230700-
NORTHEAST MONTANA

CITY           SKY/WX    TMP DP  RH WIND       PRES   REMARKS
GLASGOW        FAIR     -11 -16  78 N7        30.26F WCI -26
GLENDIVE       FAIR      -4 -11  72 NW8       30.23R WCI -19
JORDAN           N/A    -12 -18  74 NW6       30.24S WCI -26
MALTA          CLOUDY   -17 -20  83 W6        30.27S WCI -31
SIDNEY         FAIR     -13 -18  78 CALM      30.27R
WOLF POINT     FAIR     -11 -17  75 SW9       30.29F WCI -29
PLENTYWOOD       N/A      0  -6  78 NW5       30.21S
POPLAR           N/A    -13 -18  77 SW5       30.29F
SCOBEY           N/A     -9 -19  61 S1        30.18S
$$

MTZ028>42-056>058-230700-
SOUTHCENTRAL AND SOUTHEAST MONTANA

CITY           SKY/WX    TMP DP  RH WIND       PRES   REMARKS
BAKER          FAIR      -5  -8  87 W3        30.18R
BILLINGS       MOCLDY     4  -2  76 N6        30.16F WCI  -7
LIVINGSTON     FAIR       2  -3  80 CALM      30.07S
MILES CITY     FAIR      -9 -14  78 W7        30.23S WCI -24
BIG TIMBER     CLEAR      1  -6  71 NE6       30.13R WCI -10
EKALAKA          N/A      2  -8  62 SE1       30.09R
FORSYTH          N/A     -6  -9  84 W6        30.23S WCI -18
LAUREL           N/A      3  -4  72 NE8       30.18F WCI -10
$$

REGIONAL REPORTS...DAKOTAS

CITY           SKY/WX    TMP DP  RH WIND       PRES   REMARKS
WILLISTON      FAIR      -8 -12  83 SW5       30.24S
MINOT          FAIR       4  -2  76 W7        30.21S WCI  -8
DICKINSON      FAIR      -1  -6  79 W10       30.14S WCI -17
BEACH          FAIR      -4  -8  84 NW3       30.21S
CROSBY         FAIR       0  -4  85 W9        30.22S WCI -16
TIOGA          FAIR      -8  -9  92 W8        30.20S WCI -23
WATFORD CITY   FAIR      -8 -11  84 SW6       30.23S WCI -21
BISMARCK       LGT SNOW  16  10  77 NW8       30.20S WCI   5
GRAND FORKS    CLOUDY    20  15  81 CALM      30.23F
FARGO          LGT SNOW  22  20  92 N5        30.20F VSB 1
BUFFALO SD       N/A      4  -2  76 NW14      30.05R WCI -14
RAPID CITY     FAIR       5  -2  72 NW10      30.11R WCI -10
$$

REGIONAL REPORTS...WYOMING/IDAHO/WASHINGTON

CITY           SKY/WX    TMP DP  RH WIND       PRES   REMARKS
GILLETTE       FAIR      -9 -14  78 SW3       30.07R
SHERIDAN       FAIR       1  -7  68 CALM      30.11S
BUFFALO WY     FAIR      12  -4  48 N6        30.05R WCI   3
CODY           FAIR      -2  -7  79 S5        30.05S
YELLOWSTONE LA   N/A     -9 -14  78 NW3       29.89S
IDAHO FALLS    CLOUDY    23  20  88 S12       29.98R WCI  12
SALMON         CLOUDY    24  19  81 CALM      29.98R
BOISE          FAIR      21  14  74 W3        30.11R
SPOKANE        FAIR      14   8  77 SW6       30.22R WCI   5
$$

REGIONAL REPORTS...ALBERTA

CITY           SKY/WX    TMP DP  RH WIND       PRES   REMARKS
CALGARY        CLEAR      5   1  85 S6        30.03F WCI  -6
EDMONTON       CLEAR     14   7  73 SW9       30.02F WCI   2
FORT MCMURRAY  MOCLDY    18   7  62 S10       29.93F WCI   6
HIGH LEVEL     PTCLDY    14   3  62 S6        29.69F WCI   5
LETHBRIDGE     CLEAR      1  -4  78 S21       30.14F WCI -20
LLOYDMINSTER   CLEAR      9   7  92 SW12      30.08F WCI  -6
MEDICINE HAT   CLEAR      1  -2  85 SW7       30.21F WCI -11
PEACE RIVER    MOCLDY     9   0  66 SW9       29.82F WCI  -5
PINCHER CREEK  CLEAR     -4  -8  84 W8        30.07F WCI -19
WATERTON GATE    N/A      3  -8  60 SW9         N/A  WCI -11
$$

REGIONAL REPORTS...SASKATCHEWAN

CITY           SKY/WX    TMP DP  RH WIND       PRES   REMARKS
CORONACH         N/A     -9 -13  84 NW3         N/A
CYPRESS HILLS    N/A      5   1  85 W2          N/A
ESTEVAN        PTCLDY    -8 -13  77 W8        30.21S WCI -23
PRINCE ALBERT  PTCLDY    -8 -11  84 VRB2      30.19F
REGINA         PTCLDY     1   0  92 W9        30.21S WCI -14
ROCKGLEN         N/A      3   0  85 W6          N/A  WCI  -8
SASKATOON      CLEAR     -4  -8  84 S6        30.21R WCI -16
SWIFT CURRENT  FLURRIES   5   1  85 W12       30.16R WCI -11
VAL MARIE        N/A    -11 -17  77 W5          N/A
$$




USA.gov is the U.S. government's official web portal to all federal, state and local government web resources and services.